| time (UTC) | temp F | wind direction | speed MPH | gust MPH | rain 1hr in | rain 24hr in | rain mn in | humidity % | barometer mb |
| 20260506023853 | 58 | 268 | 1.0 | 6.0 | 0.00 | 0.03 | 0.03 | 42 | 814.4 |
| 20260506023357 | 59 | 261 | 0.0 | 4.0 | 0.00 | 0.03 | 0.03 | 39 | 814.2 |
| 20260506023353 | 58 | 294 | 1.0 | 6.0 | 0.00 | 0.03 | 0.03 | 42 | 814.3 |
| 20260506022852 | 58 | 253 | 1.0 | 6.0 | 0.00 | 0.03 | 0.03 | 41 | 814.3 |
| 20260506022351 | 59 | 301 | 0.0 | 6.0 | 0.00 | 0.03 | 0.03 | 41 | 814.2 |
| 20260506021352 | 59 | 271 | 0.0 | 7.0 | 0.00 | 0.03 | 0.03 | 38 | 814.0 |
| 20260506020856 | 60 | 260 | 1.0 | 8.0 | 0.00 | 0.03 | 0.03 | 38 | 813.9 |
| 20260506020851 | 60 | 240 | 1.0 | 8.0 | 0.00 | 0.03 | 0.03 | 38 | 814.0 |
| 20260506020500 | 60 | 296 | 1.0 | 8.0 | 0.00 | 0.03 | 0.03 | 38 | 813.8 |
| 20260506015957 | 60 | 242 | 1.0 | 7.0 | 0.00 | 0.03 | 0.03 | 38 | 813.8 |
| 20260506014851 | 60 | 267 | 1.0 | 4.0 | 0.00 | 0.03 | 0.03 | 37 | 813.7 |
| 20260506014350 | 61 | 310 | 1.0 | 8.0 | 0.00 | 0.03 | 0.03 | 37 | 813.6 |
| 20260506013852 | 61 | 260 | 1.0 | 8.0 | 0.00 | 0.03 | 0.03 | 37 | 813.6 |
| 20260506013350 | 61 | 257 | 1.0 | 8.0 | 0.00 | 0.03 | 0.03 | 37 | 813.5 |
| 20260506012850 | 61 | 187 | 1.0 | 8.0 | 0.00 | 0.03 | 0.03 | 35 | 813.6 |
| 20260506012349 | 62 | 219 | 1.0 | 9.0 | 0.00 | 0.03 | 0.03 | 34 | 813.6 |
| 20260506011849 | 62 | 212 | 1.0 | 9.0 | 0.00 | 0.03 | 0.03 | 34 | 813.5 |
| 20260506011349 | 61 | 237 | 1.0 | 9.0 | 0.00 | 0.03 | 0.03 | 34 | 813.5 |
| 20260506010849 | 61 | 232 | 1.0 | 6.0 | 0.00 | 0.03 | 0.03 | 34 | 813.6 |
| 20260506010349 | 61 | 245 | 1.0 | 7.0 | 0.00 | 0.03 | 0.03 | 34 | 813.6 |
| 20260506005849 | 62 | 178 | 1.0 | 10.0 | 0.00 | 0.03 | 0.03 | 33 | 813.6 |
| 20260506005350 | 62 | 217 | 1.0 | 10.0 | 0.00 | 0.03 | 0.03 | 32 | 813.5 |
| 20260506004853 | 63 | 254 | 2.0 | 15.0 | 0.00 | 0.03 | 0.03 | 30 | 813.5 |
| 20260506004849 | 62 | 255 | 2.0 | 15.0 | 0.00 | 0.03 | 0.03 | 32 | 813.6 |
| 20260506003849 | 64 | 213 | 1.0 | 8.0 | 0.00 | 0.03 | 0.03 | 29 | 813.5 |
| 20260506003350 | 65 | 259 | 1.0 | 6.0 | 0.00 | 0.03 | 0.03 | 28 | 813.4 |
| 20260506002849 | 65 | 223 | 2.0 | 10.0 | 0.00 | 0.03 | 0.03 | 29 | 813.5 |
| 20260506002347 | 65 | 195 | 3.0 | 15.0 | 0.00 | 0.03 | 0.03 | 28 | 813.5 |
| 20260506001851 | 65 | 208 | 3.0 | 15.0 | 0.00 | 0.03 | 0.03 | 30 | 813.3 |
| 20260506001847 | 65 | 248 | 2.0 | 15.0 | 0.00 | 0.03 | 0.03 | 29 | 813.4 |
| 20260506001454 | 65 | 266 | 3.0 | 15.0 | 0.00 | 0.03 | 0.03 | 31 | 813.4 |
| 20260506000953 | 65 | 226 | 2.0 | 20.0 | 0.00 | 0.03 | 0.03 | 31 | 813.3 |
| 20260505235847 | 64 | 182 | 2.0 | 20.0 | 0.00 | 0.03 | 0.03 | 31 | 813.4 |
| 20260505235347 | 63 | 205 | 1.0 | 17.0 | 0.00 | 0.03 | 0.03 | 32 | 813.4 |
| 20260505234850 | 63 | 219 | 1.0 | 6.0 | 0.00 | 0.03 | 0.03 | 35 | 813.4 |
| 20260505234845 | 64 | 205 | 1.0 | 8.0 | 0.00 | 0.03 | 0.03 | 35 | 813.4 |
| 20260505233845 | 64 | 220 | 1.0 | 12.0 | 0.00 | 0.03 | 0.03 | 35 | 813.4 |
| 20260505233343 | 64 | 173 | 1.0 | 13.0 | 0.00 | 0.03 | 0.03 | 34 | 813.4 |
| 20260505232843 | 64 | 191 | 2.0 | 13.0 | 0.00 | 0.03 | 0.03 | 36 | 813.4 |
| 20260505232342 | 64 | 217 | 2.0 | 12.0 | 0.00 | 0.03 | 0.03 | 35 | 813.5 |
| 20260505231842 | 64 | 227 | 2.0 | 15.0 | 0.00 | 0.03 | 0.03 | 35 | 813.5 |
| 20260505231340 | 64 | 265 | 1.0 | 15.0 | 0.00 | 0.03 | 0.03 | 35 | 813.5 |
| 20260505230841 | 64 | 213 | 2.0 | 13.0 | 0.00 | 0.03 | 0.03 | 37 | 813.5 |
| 20260505230341 | 64 | 222 | 2.0 | 13.0 | 0.00 | 0.03 | 0.03 | 38 | 813.6 |
| 20260505225841 | 64 | 207 | 0.0 | 11.0 | 0.00 | 0.03 | 0.03 | 39 | 813.6 |
| 20260505225340 | 64 | 191 | 0.0 | 9.0 | 0.00 | 0.03 | 0.03 | 40 | 813.6 |
| 20260505224840 | 63 | 277 | 1.0 | 12.0 | 0.00 | 0.03 | 0.03 | 41 | 813.7 |
| 20260505224340 | 63 | 217 | 1.0 | 12.0 | 0.00 | 0.03 | 0.03 | 39 | 813.8 |
| 20260505223840 | 64 | 202 | 1.0 | 9.0 | 0.00 | 0.03 | 0.03 | 40 | 813.8 |
| 20260505223341 | 64 | 201 | 1.0 | 9.0 | 0.00 | 0.03 | 0.03 | 41 | 813.8 |
| 20260505222841 | 63 | 198 | 0.0 | 9.0 | 0.00 | 0.03 | 0.03 | 42 | 813.9 |
| 20260505222341 | 63 | 207 | 0.0 | 4.0 | 0.00 | 0.03 | 0.03 | 42 | 813.8 |
| 20260505221841 | 63 | 229 | 0.0 | 7.0 | 0.00 | 0.03 | 0.03 | 43 | 813.8 |
| 20260505221341 | 64 | 217 | 0.0 | 7.0 | 0.00 | 0.03 | 0.03 | 44 | 813.9 |
| 20260505220842 | 64 | 212 | 0.0 | 2.0 | 0.00 | 0.03 | 0.03 | 46 | 814.0 |
| 20260505220341 | 63 | 258 | 0.0 | 6.0 | 0.00 | 0.03 | 0.03 | 48 | 814.1 |
| 20260505215840 | 63 | 163 | 1.0 | 11.0 | 0.00 | 0.03 | 0.03 | 49 | 814.2 |
| 20260505215341 | 62 | 224 | 1.0 | 11.0 | 0.01 | 0.03 | 0.03 | 51 | 814.2 |
| 20260505214840 | 62 | 172 | 1.0 | 7.0 | 0.01 | 0.03 | 0.03 | 52 | 814.5 |
| 20260505214340 | 62 | 209 | 1.0 | 7.0 | 0.01 | 0.03 | 0.03 | 52 | 814.6 |
| 20260505213841 | 61 | 178 | 0.0 | 8.0 | 0.01 | 0.03 | 0.03 | 56 | 814.6 |
| 20260505213343 | 59 | 179 | 0.0 | 1.0 | 0.01 | 0.03 | 0.03 | 63 | 814.8 |
| 20260505213338 | 60 | 248 | 0.0 | 8.0 | 0.01 | 0.03 | 0.03 | 58 | 814.8 |
| 20260505212344 | 58 | 163 | 0.0 | 0.0 | 0.01 | 0.03 | 0.03 | 68 | 815.1 |
| 20260505212338 | 59 | 184 | 0.0 | 0.0 | 0.01 | 0.03 | 0.03 | 67 | 815.0 |
| 20260505211339 | 58 | 205 | 0.0 | 1.0 | 0.01 | 0.03 | 0.03 | 68 | 814.9 |
| 20260505210839 | 58 | 206 | 0.0 | 1.0 | 0.01 | 0.03 | 0.03 | 66 | 815.0 |
| 20260505210338 | 58 | 184 | 0.0 | 5.0 | 0.01 | 0.03 | 0.03 | 65 | 815.1 |
| 20260505205836 | 59 | 204 | 0.0 | 9.0 | 0.01 | 0.03 | 0.03 | 61 | 815.2 |
| 20260505205336 | 60 | 251 | 0.0 | 9.0 | 0.00 | 0.02 | 0.02 | 58 | 815.3 |
| 20260505204836 | 62 | 237 | 0.0 | 11.0 | 0.00 | 0.02 | 0.02 | 53 | 815.2 |
| 20260505204336 | 62 | 242 | 1.0 | 11.0 | 0.00 | 0.02 | 0.02 | 48 | 815.2 |
| 20260505203834 | 62 | 238 | 1.0 | 14.0 | 0.00 | 0.02 | 0.02 | 47 | 815.1 |
| 20260505203334 | 63 | 215 | 0.0 | 14.0 | 0.00 | 0.02 | 0.02 | 46 | 815.2 |
| 20260505202902 | 64 | 229 | 0.0 | 1.0 | 0.00 | 0.02 | 0.02 | 46 | 815.3 |
| 20260505202839 | 64 | 257 | 0.0 | 3.0 | 0.00 | 0.02 | 0.02 | 45 | 815.3 |
| 20260505202835 | 64 | 273 | 0.0 | 7.0 | 0.00 | 0.02 | 0.02 | 45 | 815.3 |
| 20260505201330 | 64 | 255 | 0.0 | 4.0 | 0.00 | 0.02 | 0.02 | 45 | 815.3 |
| 20260505200830 | 64 | 215 | 0.0 | 4.0 | 0.00 | 0.02 | 0.02 | 45 | 815.5 |
| 20260505200331 | 63 | 252 | 0.0 | 11.0 | 0.00 | 0.02 | 0.02 | 48 | 815.5 |
| 20260505195831 | 63 | 240 | 0.0 | 11.0 | 0.00 | 0.02 | 0.02 | 47 | 815.6 |
| 20260505195328 | 63 | 177 | 0.0 | 5.0 | 0.00 | 0.02 | 0.02 | 49 | 815.7 |
| 20260505194829 | 63 | 227 | 0.0 | 2.0 | 0.00 | 0.02 | 0.02 | 52 | 815.7 |
| 20260505194329 | 62 | 265 | 0.0 | 4.0 | 0.00 | 0.02 | 0.02 | 51 | 815.6 |
| 20260505193829 | 62 | 228 | 0.0 | 9.0 | 0.00 | 0.02 | 0.02 | 52 | 815.8 |
| 20260505193328 | 62 | 215 | 0.0 | 9.0 | 0.00 | 0.02 | 0.02 | 54 | 815.9 |
| 20260505192831 | 62 | 238 | 0.0 | 2.0 | 0.00 | 0.02 | 0.02 | 54 | 815.7 |
| 20260505192827 | 61 | 265 | 0.0 | 3.0 | 0.00 | 0.02 | 0.02 | 54 | 816.0 |
| 20260505191826 | 60 | 209 | 0.0 | 3.0 | 0.00 | 0.02 | 0.02 | 57 | 816.1 |
| 20260505191327 | 60 | 248 | 0.0 | 1.0 | 0.00 | 0.02 | 0.02 | 56 | 816.1 |
| 20260505190826 | 60 | 261 | 0.0 | 9.0 | 0.00 | 0.02 | 0.02 | 58 | 816.2 |
| 20260505190326 | 60 | 214 | 0.0 | 9.0 | 0.00 | 0.02 | 0.02 | 57 | 816.3 |
| 20260505185826 | 59 | 306 | 0.0 | 3.0 | 0.00 | 0.02 | 0.02 | 62 | 816.3 |
| 20260505185326 | 58 | 254 | 0.0 | 2.0 | 0.00 | 0.02 | 0.02 | 62 | 816.4 |
| 20260505184828 | 58 | 243 | 0.0 | 1.0 | 0.00 | 0.02 | 0.02 | 65 | 816.5 |
| 20260505184326 | 58 | 311 | 0.0 | 1.0 | 0.00 | 0.02 | 0.02 | 63 | 816.6 |
| 20260505183826 | 58 | 213 | 0.0 | 2.0 | 0.00 | 0.02 | 0.02 | 63 | 816.6 |
| 20260505183324 | 58 | 215 | 0.0 | 3.0 | 0.00 | 0.02 | 0.02 | 63 | 816.6 |
| 20260505182829 | 58 | 213 | 0.0 | 2.0 | 0.00 | 0.02 | 0.02 | 63 | 816.6 |
| 20260505182825 | 58 | 283 | 0.0 | 3.0 | 0.00 | 0.02 | 0.02 | 64 | 816.6 |
| 20260505181823 | 58 | 203 | 0.0 | 2.0 | 0.00 | 0.02 | 0.02 | 63 | 816.6 |
| 20260505181324 | 57 | 276 | 0.0 | 1.0 | 0.00 | 0.02 | 0.02 | 67 | 816.7 |
| 20260505180827 | 58 | 261 | 0.0 | 1.0 | 0.00 | 0.02 | 0.02 | 65 | 816.7 |
| 20260505180823 | 57 | 299 | 0.0 | 4.0 | 0.00 | 0.02 | 0.02 | 68 | 816.6 |
| 20260505175829 | 56 | 230 | 0.0 | 6.0 | 0.00 | 0.02 | 0.02 | 67 | 816.6 |
| 20260505175822 | 57 | 212 | 0.0 | 5.0 | 0.00 | 0.02 | 0.02 | 67 | 816.6 |
| 20260505175323 | 56 | 252 | 0.0 | 5.0 | 0.00 | 0.02 | 0.02 | 68 | 816.6 |
| 20260505174930 | 56 | 270 | 0.0 | 10.0 | 0.00 | 0.02 | 0.02 | 68 | 816.6 |
| 20260505173821 | 56 | 214 | 0.0 | 10.0 | 0.00 | 0.02 | 0.02 | 69 | 816.5 |
| 20260505173319 | 56 | 235 | 0.0 | 8.0 | 0.00 | 0.02 | 0.02 | 69 | 816.6 |
| 20260505172819 | 56 | 227 | 0.0 | 8.0 | 0.00 | 0.02 | 0.02 | 69 | 816.4 |
| 20260505172320 | 56 | 271 | 0.0 | 8.0 | 0.00 | 0.02 | 0.02 | 69 | 816.5 |
| 20260505171824 | 56 | 209 | 0.0 | 5.0 | 0.00 | 0.02 | 0.02 | 72 | 816.5 |
| 20260505171820 | 56 | 298 | 0.0 | 8.0 | 0.00 | 0.02 | 0.02 | 72 | 816.4 |
| 20260505170820 | 55 | 210 | 0.0 | 5.0 | 0.00 | 0.02 | 0.02 | 73 | 816.6 |
| 20260505170320 | 55 | 259 | 0.0 | 1.0 | 0.00 | 0.02 | 0.02 | 75 | 816.5 |
| 20260505165819 | 54 | 279 | 0.0 | 2.0 | 0.00 | 0.02 | 0.02 | 75 | 816.4 |
| 20260505165325 | 54 | 246 | 0.0 | 0.0 | 0.00 | 0.02 | 0.02 | 77 | 816.3 |
| 20260505165319 | 54 | 243 | 0.0 | 2.0 | 0.00 | 0.02 | 0.02 | 75 | 816.5 |
| 20260505164927 | 54 | 225 | 0.0 | 0.0 | 0.00 | 0.02 | 0.02 | 77 | 816.3 |
| 20260505163819 | 53 | 251 | 0.0 | 3.0 | 0.00 | 0.02 | 0.02 | 79 | 816.3 |
| 20260505163317 | 53 | 255 | 0.0 | 4.0 | 0.00 | 0.02 | 0.02 | 79 | 816.3 |
| 20260505162822 | 52 | 267 | 0.0 | 0.0 | 0.00 | 0.02 | 0.02 | 81 | 816.4 |
| 20260505162817 | 52 | 282 | 0.0 | 4.0 | 0.00 | 0.02 | 0.02 | 79 | 816.3 |
| 20260505161818 | 52 | 267 | 0.0 | 1.0 | 0.00 | 0.02 | 0.02 | 80 | 816.4 |
| 20260505161322 | 52 | 284 | 0.0 | 0.0 | 0.00 | 0.02 | 0.02 | 82 | 816.3 |
| 20260505161318 | 52 | 209 | 0.0 | 1.0 | 0.00 | 0.02 | 0.02 | 81 | 816.3 |
| 20260505160929 | 51 | 284 | 0.0 | 0.0 | 0.00 | 0.02 | 0.02 | 81 | 816.2 |
| 20260505160925 | 51 | 284 | 0.0 | 0.0 | 0.00 | 0.02 | 0.02 | 82 | 816.2 |
| 20260505153318 | 50 | 317 | 0.0 | 0.0 | 0.00 | 0.02 | 0.02 | 86 | 816.2 |
| 20260505152818 | 49 | 317 | 0.0 | 0.0 | 0.00 | 0.02 | 0.02 | 86 | 816.3 |
| 20260505152319 | 49 | 319 | 0.0 | 0.0 | 0.00 | 0.02 | 0.02 | 85 | 816.1 |
| 20260505151818 | 49 | 299 | 0.0 | 0.0 | 0.00 | 0.02 | 0.02 | 85 | 816.1 |
| 20260505151318 | 49 | 299 | 0.0 | 0.0 | 0.00 | 0.02 | 0.02 | 84 | 816.2 |
| 20260505150817 | 49 | 290 | 0.0 | 0.0 | 0.00 | 0.02 | 0.02 | 84 | 816.1 |
| 20260505150317 | 48 | 290 | 0.0 | 0.0 | 0.00 | 0.02 | 0.02 | 84 | 816.3 |
| 20260505140315 | 47 | 323 | 0.0 | 0.0 | 0.00 | 0.02 | 0.02 | 87 | 815.8 |
| 20260505130311 | 46 | 317 | 0.0 | 0.0 | 0.02 | 0.02 | 0.02 | 86 | 815.9 |
| 20260505124812 | 46 | 317 | 0.0 | 0.0 | 0.02 | 0.02 | 0.02 | 84 | 816.2 |
| 20260505124312 | 46 | 317 | 0.0 | 0.0 | 0.02 | 0.02 | 0.02 | 83 | 815.9 |
| 20260505123810 | 46 | 296 | 0.0 | 0.0 | 0.02 | 0.02 | 0.02 | 82 | 816.0 |
| 20260505123309 | 46 | 270 | 0.0 | 4.0 | 0.02 | 0.02 | 0.02 | 82 | 816.4 |
| 20260505122813 | 47 | 267 | 0.0 | 7.0 | 0.02 | 0.02 | 0.02 | 81 | 816.8 |
| 20260505122809 | 47 | 219 | 0.0 | 7.0 | 0.02 | 0.02 | 0.02 | 81 | 816.7 |
| 20260505121809 | 47 | 260 | 0.0 | 0.0 | 0.01 | 0.01 | 0.01 | 81 | 817.0 |
| 20260505121309 | 47 | 244 | 0.0 | 2.0 | 0.01 | 0.01 | 0.01 | 79 | 816.8 |
| 20260505120811 | 48 | 266 | 1.0 | 15.0 | 0.01 | 0.01 | 0.01 | 77 | 816.9 |
| 20260505120310 | 48 | 265 | 1.0 | 15.0 | 0.00 | 0.00 | 0.00 | 75 | 816.8 |
| 20260505115809 | 49 | 253 | 1.0 | 9.0 | 0.00 | 0.00 | 0.00 | 72 | 816.7 |
| 20260505115309 | 50 | 271 | 1.0 | 10.0 | 0.00 | 0.00 | 0.00 | 69 | 816.6 |
| 20260505114809 | 50 | 307 | 1.0 | 10.0 | 0.00 | 0.00 | 0.00 | 68 | 816.6 |
| 20260505114309 | 51 | 303 | 2.0 | 19.0 | 0.00 | 0.00 | 0.00 | 68 | 816.5 |
| 20260505113807 | 51 | 236 | 2.0 | 19.0 | 0.00 | 0.00 | 0.00 | 67 | 816.5 |
| 20260505113307 | 52 | 257 | 1.0 | 14.0 | 0.00 | 0.00 | 0.00 | 66 | 816.4 |
| 20260505112914 | 52 | 244 | 0.0 | 6.0 | 0.00 | 0.00 | 0.00 | 68 | 816.4 |
| 20260505112813 | 52 | 275 | 1.0 | 12.0 | 0.00 | 0.00 | 0.00 | 66 | 816.6 |
| 20260505112808 | 52 | 179 | 1.0 | 12.0 | 0.00 | 0.00 | 0.00 | 66 | 816.4 |
| 20260505111913 | 52 | 271 | 0.0 | 1.0 | 0.00 | 0.00 | 0.00 | 73 | 816.4 |
| 20260505110807 | 52 | 281 | 0.0 | 7.0 | 0.00 | 0.00 | 0.00 | 73 | 816.3 |
| 20260505110307 | 52 | 250 | 0.0 | 7.0 | 0.00 | 0.00 | 0.00 | 73 | 816.2 |
| 20260505101303 | 52 | 284 | 0.0 | 4.0 | 0.00 | 0.00 | 0.00 | 73 | 816.3 |
| 20260505100800 | 52 | 273 | 0.0 | 4.0 | 0.00 | 0.00 | 0.00 | 73 | 816.2 |
| 20260505100301 | 52 | 269 | 0.0 | 6.0 | 0.00 | 0.00 | 0.00 | 73 | 816.2 |
| 20260505095804 | 52 | 280 | 0.0 | 6.0 | 0.00 | 0.00 | 0.00 | 73 | 816.3 |
| 20260505095300 | 52 | 207 | 0.0 | 0.0 | 0.00 | 0.00 | 0.00 | 72 | 816.5 |
| 20260505094805 | 52 | 288 | 0.0 | 6.0 | 0.00 | 0.00 | 0.00 | 72 | 816.5 |
| 20260505094800 | 52 | 205 | 0.0 | 9.0 | 0.00 | 0.00 | 0.00 | 72 | 816.7 |
| 20260505094259 | 52 | 242 | 0.0 | 9.0 | 0.00 | 0.00 | 0.00 | 72 | 816.6 |
| 20260505093258 | 52 | 233 | 0.0 | 7.0 | 0.00 | 0.00 | 0.00 | 72 | 816.2 |
| 20260505092803 | 51 | 262 | 0.0 | 3.0 | 0.00 | 0.00 | 0.00 | 72 | 816.3 |
| 20260505092759 | 51 | 252 | 0.0 | 7.0 | 0.00 | 0.00 | 0.00 | 72 | 816.3 |
| 20260505091758 | 51 | 261 | 0.0 | 4.0 | 0.00 | 0.00 | 0.00 | 74 | 816.4 |
| 20260505091257 | 50 | 261 | 0.0 | 4.0 | 0.00 | 0.00 | 0.00 | 75 | 816.5 |
| 20260505090759 | 49 | 277 | 0.0 | 5.0 | 0.00 | 0.00 | 0.00 | 77 | 816.3 |
| 20260505090755 | 50 | 265 | 0.0 | 5.0 | 0.00 | 0.00 | 0.00 | 76 | 816.4 |
| 20260505085759 | 49 | 263 | 0.0 | 1.0 | 0.00 | 0.00 | 0.00 | 77 | 816.5 |
| 20260505085755 | 49 | 270 | 0.0 | 1.0 | 0.00 | 0.00 | 0.00 | 77 | 816.4 |
| 20260505085401 | 49 | 313 | 0.0 | 0.0 | 0.00 | 0.00 | 0.00 | 77 | 816.4 |
| 20260505084754 | 49 | 313 | 0.0 | 0.0 | 0.00 | 0.00 | 0.00 | 77 | 816.5 |
| 20260505083756 | 49 | 317 | 0.0 | 0.0 | 0.00 | 0.00 | 0.00 | 77 | 816.5 |
| 20260505083255 | 49 | 317 | 0.0 | 0.0 | 0.00 | 0.00 | 0.00 | 77 | 816.6 |
| 20260505082754 | 49 | 317 | 0.0 | 0.0 | 0.00 | 0.00 | 0.00 | 76 | 816.6 |
| 20260505082254 | 49 | 317 | 0.0 | 0.0 | 0.00 | 0.00 | 0.00 | 76 | 816.9 |
| 20260505081753 | 49 | 317 | 0.0 | 0.0 | 0.00 | 0.00 | 0.00 | 75 | 816.9 |
| 20260505081257 | 49 | 317 | 0.0 | 0.0 | 0.00 | 0.00 | 0.00 | 75 | 816.7 |
| 20260505081253 | 49 | 317 | 0.0 | 0.0 | 0.00 | 0.00 | 0.00 | 75 | 817.0 |
| 20260505080253 | 50 | 317 | 0.0 | 0.0 | 0.00 | 0.00 | 0.00 | 74 | 816.9 |
| 20260505075759 | 50 | 317 | 0.0 | 0.0 | 0.00 | 0.00 | 0.00 | 72 | 817.3 |
| 20260505075753 | 50 | 317 | 0.0 | 0.0 | 0.00 | 0.00 | 0.00 | 74 | 816.9 |
| 20260505075253 | 50 | 317 | 0.0 | 0.0 | 0.00 | 0.00 | 0.00 | 73 | 816.9 |
| 20260505074753 | 50 | 317 | 0.0 | 0.0 | 0.00 | 0.00 | 0.00 | 72 | 817.1 |
| 20260505074359 | 51 | 317 | 0.0 | 0.0 | 0.00 | 0.00 | 0.00 | 71 | 817.3 |
| 20260505073253 | 51 | 317 | 0.0 | 0.0 | 0.00 | 0.00 | 0.00 | 71 | 817.2 |
| 20260505072751 | 51 | 317 | 0.0 | 0.0 | 0.00 | 0.00 | 0.00 | 71 | 817.2 |
| 20260505072251 | 51 | 317 | 0.0 | 0.0 | 0.00 | 0.00 | 0.00 | 71 | 816.9 |
| 20260505071751 | 51 | 317 | 0.0 | 0.0 | 0.00 | 0.00 | 0.00 | 70 | 817.1 |
| 20260505071250 | 51 | 317 | 0.0 | 0.0 | 0.00 | 0.00 | 0.00 | 70 | 817.2 |
| 20260505070750 | 51 | 317 | 0.0 | 0.0 | 0.00 | 0.00 | 0.00 | 70 | 817.1 |
| 20260505070250 | 51 | 318 | 0.0 | 0.0 | 0.00 | 0.00 | 0.00 | 70 | 816.9 |
| 20260505065750 | 51 | 318 | 0.0 | 0.0 | 0.00 | 0.00 | 0.00 | 70 | 817.0 |
| 20260505065251 | 51 | 318 | 0.0 | 0.0 | 0.00 | 0.00 | 0.00 | 69 | 817.2 |
| 20260505064754 | 52 | 318 | 0.0 | 0.0 | 0.00 | 0.00 | 0.00 | 68 | 817.2 |
| 20260505064750 | 51 | 318 | 0.0 | 0.0 | 0.00 | 0.00 | 0.00 | 69 | 817.2 |
| 20260505063750 | 52 | 318 | 0.0 | 0.0 | 0.00 | 0.00 | 0.00 | 67 | 817.3 |
| 20260505063251 | 52 | 318 | 0.0 | 0.0 | 0.00 | 0.00 | 0.00 | 67 | 817.3 |
| 20260505062750 | 52 | 318 | 0.0 | 0.0 | 0.00 | 0.00 | 0.00 | 66 | 817.2 |
| 20260505062251 | 53 | 317 | 0.0 | 0.0 | 0.00 | 0.00 | 0.00 | 66 | 817.1 |
| 20260505061748 | 53 | 311 | 0.0 | 0.0 | 0.00 | 0.00 | 0.00 | 66 | 816.9 |
| 20260505061254 | 53 | 325 | 0.0 | 0.0 | 0.00 | 0.00 | 0.00 | 65 | 816.7 |
| 20260505061248 | 53 | 330 | 0.0 | 0.0 | 0.00 | 0.00 | 0.00 | 65 | 816.8 |
| 20260505060247 | 53 | 327 | 0.0 | 0.0 | 0.00 | 0.00 | 0.00 | 64 | 816.6 |
| 20260505055747 | 53 | 319 | 0.0 | 0.0 | 0.00 | 0.00 | 0.00 | 64 | 816.6 |
| 20260505055247 | 53 | 5 | 0.0 | 0.0 | 0.00 | 0.00 | 0.00 | 63 | 816.7 |
| 20260505054746 | 53 | 348 | 0.0 | 0.0 | 0.00 | 0.00 | 0.00 | 63 | 817.0 |
| 20260505054246 | 53 | 334 | 0.0 | 1.0 | 0.00 | 0.00 | 0.00 | 63 | 816.8 |
| 20260505053745 | 53 | 319 | 0.0 | 1.0 | 0.00 | 0.00 | 0.00 | 63 | 817.1 |
| 20260505053243 | 53 | 330 | 0.0 | 0.0 | 0.00 | 0.00 | 0.00 | 63 | 817.3 |
| 20260505052743 | 53 | 318 | 0.0 | 0.0 | 0.00 | 0.00 | 0.00 | 63 | 817.6 |
| 20260505052243 | 54 | 315 | 0.0 | 1.0 | 0.00 | 0.00 | 0.00 | 63 | 817.6 |
| 20260505051744 | 54 | 341 | 0.0 | 1.0 | 0.00 | 0.00 | 0.00 | 63 | 817.6 |
| 20260505051245 | 54 | 323 | 0.0 | 1.0 | 0.00 | 0.00 | 0.00 | 62 | 817.5 |
| 20260505050744 | 54 | 323 | 0.0 | 1.0 | 0.00 | 0.00 | 0.00 | 62 | 817.5 |
| 20260505050243 | 54 | 333 | 0.0 | 0.0 | 0.00 | 0.00 | 0.00 | 62 | 817.5 |
| 20260505041743 | 55 | 310 | 0.0 | 5.0 | 0.00 | 0.00 | 0.00 | 60 | 817.4 |
| 20260505041242 | 55 | 310 | 0.0 | 5.0 | 0.00 | 0.00 | 0.00 | 59 | 817.4 |
| 20260505040741 | 55 | 344 | 0.0 | 5.0 | 0.00 | 0.00 | 0.00 | 58 | 817.5 |
| 20260505040242 | 55 | 270 | 0.0 | 10.0 | 0.00 | 0.00 | 0.00 | 57 | 817.6 |
| 20260505035742 | 56 | 306 | 0.0 | 12.0 | 0.00 | 0.00 | 0.00 | 56 | 817.6 |
| 20260505035238 | 56 | 346 | 0.0 | 12.0 | 0.00 | 0.00 | 0.00 | 55 | 817.6 |
| 20260505034742 | 57 | 292 | 0.0 | 8.0 | 0.00 | 0.00 | 0.00 | 52 | 817.4 |
| 20260505034737 | 56 | 311 | 0.0 | 5.0 | 0.00 | 0.00 | 0.00 | 54 | 817.6 |
| 20260505034236 | 57 | 282 | 0.0 | 8.0 | 0.00 | 0.00 | 0.00 | 53 | 817.5 |
| 20260505033841 | 57 | 304 | 0.0 | 8.0 | 0.00 | 0.00 | 0.00 | 51 | 817.5 |
| 20260505032735 | 57 | 276 | 0.0 | 3.0 | 0.00 | 0.00 | 0.00 | 50 | 817.7 |
| 20260505032236 | 58 | 259 | 0.0 | 5.0 | 0.00 | 0.00 | 0.00 | 49 | 817.6 |
| 20260505031735 | 58 | 315 | 1.0 | 10.0 | 0.00 | 0.00 | 0.00 | 49 | 817.6 |
| 20260505031236 | 58 | 317 | 1.0 | 10.0 | 0.00 | 0.00 | 0.00 | 48 | 817.6 |
| 20260505030741 | 58 | 291 | 0.0 | 12.0 | 0.00 | 0.00 | 0.00 | 46 | 817.7 |
| 20260505030736 | 58 | 278 | 1.0 | 12.0 | 0.00 | 0.00 | 0.00 | 46 | 817.4 |
| 20260505030341 | 58 | 319 | 1.0 | 15.0 | 0.00 | 0.00 | 0.00 | 45 | 817.1 |
| 20260505025234 | 58 | 328 | 1.0 | 15.0 | 0.00 | 0.00 | 0.00 | 44 | 816.9 |
| 20260505024734 | 59 | 345 | 1.0 | 14.0 | 0.00 | 0.00 | 0.00 | 44 | 816.9 |
| 20260505024233 | 59 | 341 | 2.0 | 13.0 | 0.00 | 0.00 | 0.00 | 42 | 816.9 |